Regional Weather Roundup
Issued by NWS Portland, ME

Current Version | Previous Version | Text Only | Print | Product List | Glossary Off
Versions: 1 2 3 4 5 6 7 8 9 10 11 12 13 14 15 16 17 18 19 20 21 22 23 24 25 26 27 28 29 30 31 32 33 34 35 36 37 38 39 40 41 42 43 44 45 46 47 48 49 50

913
ASUS41 KGYX 250410
RWRGYX
WEATHER ROUNDUP FOR MAINE AND NEW HAMPSHIRE
NATIONAL WEATHER SERVICE GRAY ME
1100 PM EST FRI FEB 24 2017

MEZ002-005-006-010-012-015-018-020-021-024-026-027-029-250500-
MAINE

CITY           SKY/WX    TMP DP  RH WIND       PRES   REMARKS
PORTLAND       CLOUDY    39  38  96 NW6       29.84S
SANFORD        CLEAR     47  45  93 S3        29.84S
BAR HARBOR     CLOUDY    42  42 100 S5        29.87S FOG
WISCASSET      PTCLDY    38  34  85 CALM      29.86S
ROCKLAND       CLEAR     47  46  97 SW3       29.85S
FRYEBURG       FOG       35  35 100 CALM      29.84S VSB 1/2
LEWISTONAUBURN FOG       36  36 100 CALM      29.84S VSB 1/4
AUGUSTA        FOG       41  39  93 CALM      29.83S VSB 1/4
WATERVILLE     FOG       40  39  97 N3        29.81S VSB 1/4
BANGOR         FOG       35  34  96 CALM      29.85S VSB 1/8
GREENVILLE       N/A     40  40 100 SE7       29.78F
MILLINOCKET    CLOUDY    38  37  97 NE9       29.88F FOG
HOULTON        CLOUDY    34  34 100 N8        29.88F
PRESQUE ISLE   MIX PCPN  32  30  92 N12       29.96R
FRENCHVILLE    MIX PCPN  27  23  85 N5        29.94R
CARIBOU        FRZ RAIN  31  27  85 N12       29.94R
$$

NHZ002-005-008-009-011-012-014-250500-
NEW HAMPSHIRE

CITY           SKY/WX    TMP DP  RH WIND       PRES   REMARKS
PORTSMOUTH     PTCLDY    55  51  86 CALM      29.82S
ROCHESTER      CLEAR     52  48  86 CALM      29.83F
NASHUA         PTCLDY    57  53  86 VRB5      29.84S
MANCHESTER     MOCLDY    57  50  77 S7        29.82S
CONCORD        MOCLDY    48  44  86 CALM      29.83S
LACONIA        FOG       37  36  96 MISG      29.84R VSB 1/4
PLYMOUTH       FOG       36  36 100 CALM      29.84S VSB<1/4
BERLIN         FOG       35  33  92 CALM      29.79F VSB 1/4
WHITEFIELD     FOG       35  33  92 CALM      29.79S VSB 1/4
JAFFREY        CLOUDY    55  51  86 S8        29.84F
KEENE          FOG       43  43 100 CALM      29.84S VSB 3/4
LEBANON        FOG       36  36 100 CALM      29.81R VSB 1/4
MT WASHINGTON  FOG       39  39 100 W39G51      N/A  VSB 1/16
$$

VTZ005-007-008-250500-
VERMONT

CITY           SKY/WX    TMP DP  RH WIND       PRES   REMARKS
ST JOHNSBURY     N/A     37  37 100 MISG      29.78R
MONTPELIER     FOG       38  38 100 CALM      29.81S VSB 1/4
BURLINGTON     FOG       38  38 100 CALM      29.77S VSB 1/8
$$

MAZ007-012-024-CTZ003-RIZ002-NYZ038-NYZ072-250500-
SOUTHERN NEW ENGLAND AND NY

CITY           SKY/WX    TMP DP  RH WIND       PRES   REMARKS
BOSTON         PTCLDY    52  51  97 S10       29.87F
WORCESTER      CLOUDY    56  53  90 SW14      29.86F
NANTUCKET      FOG       49  47  93 S10       29.94S VSB 1
PROVIDENCE     CLOUDY    49  47  93 SE7       29.90F FOG
HARTFORD       CLOUDY    57  54  89 S10       29.87R
ALBANY         MOCLDY    61  51  70 S13       29.77F
NEW YORK CITY  CLOUDY    56  53  90 S7        29.87R
$$

ANZ081-ANZ082-ANZ150-NHZ014-MEZ023>029-250500-
COASTAL MARINE OBSERVATIONS

STATION/POSITION TIME  TEMP    WIND        PRES    WAVE
                       AIR SEA DIR/SP/G            HT/PER
                 (UTC) (F)     (DEG/KT/KT) (MB)    (FT/S)
MOUNT DESERT ROC 0400   45                 1011.3S
MATINICUS ROCK   0300   46     200/ 23/ 24 1010.5S
ISLE OF SHOALS   0300   51     180/ 21/ 21 1010.1F
JEFFREYS LEDGE   0306      43                N/A     4/10
CASHES LEDGE BUO 0250   47 43              1011.4    4/ 5
GEORGES BANK BUO 0350   49 44              1016.9F   3/10
$$

.............KEY..............
   WCI - WIND CHILL
   TC  - TEMPERATURE IN CELSIUS
   VSB - VISIBILITY IN MILES
   HX  - HEAT INDEX
   FAIR- INDICATES FEW OR NO CLOUDS BELOW 12,000 FT, WITH NO
         SIGNIFICANT WEATHER AND/OR OBSTRUCTIONS TO VISIBILITY.






USA.gov is the U.S. government's official web portal to all federal, state and local government web resources and services.